Bookmark and Share
Track history (hours):
 

Fesco Vladimir

Last reported at 2014-Apr-24 08:33 UTC. Time now 2014-Apr-24 09:13 UTC.
Position N 53°55' E 009°11'.

Length 184 m; draft 9.1 m.

Type: Ship (hazmat cat A). MMSI: 209777000.

NotesDate/timePositionNaut miles runAvg speedWind from/ knotsBaromVisibWave heightAir tempDewpointWater temp
2014-Apr-24 08:33N 53°55' E 009°11'5 5.1
2014-Apr-24 07:33N 53°59' E 009°16'6 6.5
2014-Apr-24 06:33N 54°05' E 009°19'4 4.5
2014-Apr-24 05:33N 54°09' E 009°22'4 4.5
2014-Apr-24 04:33N 54°11' E 009°29'7 6.2
2014-Apr-24 03:29N 54°15' E 009°37'59 7.4
2014-Apr-23 19:33N 54°36' E 011°12'1716.9
2014-Apr-23 18:33N 54°28' E 011°38'1716.8
2014-Apr-23 17:33N 54°27' E 012°06'1515.0
2014-Apr-23 16:33N 54°39' E 012°20'1616.3
2014-Apr-23 15:33N 54°48' E 012°44'1616.1
2014-Apr-23 14:33N 54°53' E 013°11'1616.5
2014-Apr-23 13:33N 54°59' E 013°38'1615.9
2014-Apr-23 12:33N 55°04' E 014°04'1616.1
2014-Apr-23 11:33N 55°17' E 014°22'1615.9
2014-Apr-23 10:33N 55°28' E 014°41'1616.3
2014-Apr-23 09:33N 55°37' E 015°06'1616.5
2014-Apr-23 08:33N 55°45' E 015°30'1616.5
2014-Apr-23 07:33N 55°53' E 015°56'1817.7
2014-Apr-23 06:34N 56°02' E 016°23'24916.2
2014-Apr-22 15:07N 59°07' E 021°36'916.2
2014-Apr-22 14:33N 59°13' E 021°49'4715.5
2014-Apr-22 11:31N 59°37' E 023°09'1515.7
2014-Apr-22 10:33N 59°41' E 023°37'1715.7
2014-Apr-22 09:28N 59°46' E 024°10'1415.7
2014-Apr-22 08:33N 59°49' E 024°38'2315.6
2014-Apr-22 07:07N 59°53' E 025°22'915.6
2014-Apr-22 06:31N 59°55' E 025°40'1915.7
2014-Apr-22 05:20N 59°59' E 026°16'1215.5
2014-Apr-22 04:33N 60°01' E 026°40'1814.7
2014-Apr-22 03:19N 60°03' E 027°16'8812.9
2014-Apr-21 20:32N 59°53' E 030°10'2 1.4
2014-Apr-21 19:19N 59°54' E 030°14'0 0.0
2014-Apr-21 18:31N 59°54' E 030°14'0 0.0
2014-Apr-21 17:31N 59°54' E 030°14'0 0.0
2014-Apr-21 16:31N 59°54' E 030°14'0 0.0
2014-Apr-21 15:31N 59°54' E 030°14'0 0.0
2014-Apr-21 14:28N 59°54' E 030°14'0 0.0
2014-Apr-21 13:25N 59°54' E 030°14'0 0.0
2014-Apr-21 12:31N 59°54' E 030°14'0 0.0
2014-Apr-21 11:31N 59°54' E 030°14'0 0.0
2014-Apr-21 10:04N 59°54' E 030°14'0 0.0
2014-Apr-21 09:25N 59°54' E 030°14'0 0.0
2014-Apr-21 08:28N 59°54' E 030°14'0 0.0
2014-Apr-21 07:31N 59°54' E 030°14'0 0.0
2014-Apr-21 06:31N 59°54' E 030°14'1 1.3
2014-Apr-21 05:33N 59°53' E 030°12'0 0.1
2014-Apr-21 03:13N 59°53' E 030°12'0 0.0
2014-Apr-21 02:31N 59°53' E 030°12'0 0.0
2014-Apr-21 00:07N 59°53' E 030°12'0 0.0
2014-Apr-20 23:25N 59°53' E 030°12'0 0.0
2014-Apr-20 22:31N 59°53' E 030°12'0 0.0
2014-Apr-20 21:22N 59°53' E 030°12'0 0.0
2014-Apr-20 20:31N 59°53' E 030°12'0 0.0
2014-Apr-20 17:31N 59°53' E 030°12'1 0.3
2014-Apr-20 13:33N 59°53' E 030°10'91 2.7
2014-Apr-19 04:29N 59°59' E 027°09'1414.9
2014-Apr-19 03:34N 59°59' E 026°42'6315.6
2014-Apr-18 23:33N 59°45' E 024°40'1715.4
2014-Apr-18 22:28N 59°40' E 024°08'1415.4
2014-Apr-18 21:33N 59°36' E 023°42'32415.4
2014-Apr-18 00:33N 55°54' E 016°19'2016.2
2014-Apr-17 23:19N 55°44' E 015°48'1216.3
2014-Apr-17 22:34N 55°38' E 015°29'1615.9
2014-Apr-17 21:33N 55°31' E 015°04'1616.0
2014-Apr-17 20:33N 55°23' E 014°40'1616.2
2014-Apr-17 19:34N 55°10' E 014°22'1616.1
2014-Apr-17 18:34N 54°59' E 014°01'1616.3
2014-Apr-17 17:34N 54°54' E 013°35'1615.7
2014-Apr-17 16:34N 54°49' E 013°09'1615.6
2014-Apr-17 15:34N 54°44' E 012°43'1615.7
2014-Apr-17 14:34N 54°35' E 012°21'1414.5
2014-Apr-17 13:34N 54°25' E 012°03'1514.9
2014-Apr-17 12:34N 54°27' E 011°38'1515.1
2014-Apr-17 11:34N 54°34' E 011°15'58 7.9
2014-Apr-17 04:10N 54°17' E 009°39'4 7.0
2014-Apr-17 03:33N 54°13' E 009°36'6 6.1
2014-Apr-17 02:33N 54°10' E 009°26'6 6.1
2014-Apr-17 01:33N 54°06' E 009°20'5 4.9
2014-Apr-17 00:33N 54°01' E 009°18'6 6.4
2014-Apr-16 23:33N 53°56' E 009°12'3 2.8
2014-Apr-16 22:33N 53°54' E 009°09'1 1.5
2014-Apr-16 21:33N 53°53' E 009°06'3 3.2
2014-Apr-16 20:33N 53°53' E 009°12'1313.1
2014-Apr-16 19:34N 53°44' E 009°27'1515.2
2014-Apr-16 18:33N 53°34' E 009°46'5 4.8
2014-Apr-16 17:32N 53°32' E 009°54'0 0.0
2014-Apr-16 16:29N 53°32' E 009°54'0 0.0
2014-Apr-16 15:29N 53°32' E 009°54'0 0.0
2014-Apr-16 14:32N 53°32' E 009°54'0 0.0
2014-Apr-16 13:29N 53°32' E 009°54'0 0.0
2014-Apr-16 12:32N 53°32' E 009°54'0 0.0
2014-Apr-16 11:29N 53°32' E 009°54'0 0.0
2014-Apr-16 10:32N 53°32' E 009°54'0 0.0
2014-Apr-16 09:32N 53°32' E 009°54'0 0.0
2014-Apr-16 08:32N 53°32' E 009°54'0 0.0
2014-Apr-16 07:29N 53°32' E 009°54'0 0.0
2014-Apr-16 06:32N 53°32' E 009°54'0 0.0
2014-Apr-16 05:32N 53°32' E 009°54'0 0.0
2014-Apr-16 04:29N 53°32' E 009°54'0 0.0
2014-Apr-16 03:29N 53°32' E 009°54'0 0.0
2014-Apr-16 02:32N 53°32' E 009°54'0 0.0
2014-Apr-16 01:26N 53°32' E 009°54'1 1.3
2014-Apr-16 00:33N 53°33' E 009°53'1312.7
2014-Apr-15 23:33N 53°37' E 009°33'1716.7
2014-Apr-15 22:33N 53°51' E 009°18'1514.7
2014-Apr-15 21:33N 53°50' E 008°53'1514.6
2014-Apr-15 20:33N 53°58' E 008°32'1515.0
2014-Apr-15 19:33N 53°59' E 008°07'1615.7
2014-Apr-15 18:33N 53°56' E 007°41'1515.3
2014-Apr-15 17:33N 53°52' E 007°15'2014.8
2014-Apr-15 16:12N 53°47' E 006°43'914.1
2014-Apr-15 15:32N 53°45' E 006°27'1414.2
2014-Apr-15 14:33N 53°41' E 006°05'14 7.1
2014-Apr-15 12:34N 53°36' E 005°42'1413.9
2014-Apr-15 11:34N 53°32' E 005°20'1413.8
2014-Apr-15 10:34N 53°27' E 004°58'1312.9
2014-Apr-15 09:34N 53°20' E 004°40'1313.3
2014-Apr-15 08:34N 53°08' E 004°30'1313.0
2014-Apr-15 07:34N 52°57' E 004°19'1313.3
2014-Apr-15 06:34N 52°45' E 004°09'1413.8
2014-Apr-15 05:34N 52°33' E 003°56'3015.0
2014-Apr-15 03:34N 52°03' E 003°54'9 8.7
2014-Apr-15 02:34N 51°57' E 004°05'0 0.4
2014-Apr-15 01:32N 51°58' E 004°04'0 0.0
2014-Apr-14 23:32N 51°58' E 004°04'0 0.0
2014-Apr-14 22:32N 51°58' E 004°04'0 0.0
2014-Apr-14 21:32N 51°58' E 004°04'0 0.0
2014-Apr-14 20:29N 51°58' E 004°04'0 0.0
2014-Apr-14 19:32N 51°58' E 004°04'0 0.0
2014-Apr-14 17:32N 51°58' E 004°04'0 0.0
2014-Apr-14 15:32N 51°58' E 004°04'0 0.0
2014-Apr-14 14:32N 51°58' E 004°04'0 0.0
2014-Apr-14 13:32N 51°58' E 004°04'0 0.0
2014-Apr-14 11:32N 51°58' E 004°04'0 0.2
2014-Apr-14 10:32N 51°58' E 004°05'8 8.2
2014-Apr-14 09:34N 52°02' E 003°53'  

Dump ship's entire track history

sailing weather and tide predictions

Fesco Vladimir — 5BSL2 — position and weather